SB KEPS @ AMSAT $ORB14212.O Orbital Elements 14212.OSCAR
HR AMSAT ORBITAL ELEMENTS FOR OSCAR SATELLITES FROM WA5QGD FORT WORTH,TX July 31, 2014 BID: ORB14212.O TO ALL RADIO AMATEURS BT
Satellite: AO-07 Catalog number: 07530 Epoch time: 14211.80120610 Element set: 27 Inclination: 101.4754 deg RA of node: 192.2023 deg Eccentricity: 0.0011666 Arg of perigee: 207.8798 deg Mean anomaly: 270.9717 deg Mean motion: 12.53605918 rev/day Decay rate: -2.2e-07 rev/day^2 Epoch rev: 81698 Checksum: 281
Satellite: FO-29 Catalog number: 24278 Epoch time: 14212.60938943 Element set: 432 Inclination: 098.5131 deg RA of node: 220.3395 deg Eccentricity: 0.0350717 Arg of perigee: 182.2160 deg Mean anomaly: 327.2770 deg Mean motion: 13.53026600 rev/day Decay rate: 2.4e-07 rev/day^2 Epoch rev: 88667 Checksum: 295
Satellite: SO-33 Catalog number: 25509 Epoch time: 14212.56188017 Element set: 805 Inclination: 031.4318 deg RA of node: 268.9498 deg Eccentricity: 0.0349472 Arg of perigee: 143.1819 deg Mean anomaly: 003.7808 deg Mean motion: 14.29564388 rev/day Decay rate: 2.24e-06 rev/day^2 Epoch rev: 82350 Checksum: 320
Satellite: RS-22 Catalog number: 27939 Epoch time: 14212.55277630 Element set: 718 Inclination: 097.8125 deg RA of node: 024.4999 deg Eccentricity: 0.0012795 Arg of perigee: 332.0486 deg Mean anomaly: 028.0034 deg Mean motion: 14.65258722 rev/day Decay rate: 3.61e-06 rev/day^2 Epoch rev: 57922 Checksum: 318
Satellite: HO-68 Catalog number: 36122 Epoch time: 14212.72582991 Element set: 814 Inclination: 100.2455 deg RA of node: 263.2393 deg Eccentricity: 0.0007807 Arg of perigee: 134.3492 deg Mean anomaly: 225.8255 deg Mean motion: 13.16317048 rev/day Decay rate: -4.3e-07 rev/day^2 Epoch rev: 22229 Checksum: 286
Satellite: AO-73 Catalog number: 39444 Epoch time: 14212.15035227 Element set: 208 Inclination: 097.7715 deg RA of node: 281.3054 deg Eccentricity: 0.0062927 Arg of perigee: 099.9271 deg Mean anomaly: 260.9115 deg Mean motion: 14.78433154 rev/day Decay rate: 9.24e-06 rev/day^2 Epoch rev: 3596 Checksum: 313
Satellite: EO-79 Catalog number: 40025 Epoch time: 14212.74936860 Element set: 116 Inclination: 097.9794 deg RA of node: 107.4666 deg Eccentricity: 0.0013282 Arg of perigee: 147.2754 deg Mean anomaly: 212.9356 deg Mean motion: 14.85280463 rev/day Decay rate: 6.73e-06 rev/day^2 Epoch rev: 620 Checksum: 312
/EX SB KEPS @ AMSAT $ORB14212.D Orbital Elements 14212.MICROS
HR AMSAT ORBITAL ELEMENTS FOR THE MICROSATS FROM WA5QGD FORT WORTH,TX July 31, 2014 BID: ORB14212.D TO ALL RADIO AMATEURS BT
Satellite: UO-11 Catalog number: 14781 Epoch time: 14212.73952510 Element set: 560 Inclination: 097.8489 deg RA of node: 271.9910 deg Eccentricity: 0.0009274 Arg of perigee: 045.0196 deg Mean anomaly: 315.1767 deg Mean motion: 14.81662838 rev/day Decay rate: 6.20e-06 rev/day^2 Epoch rev: 63456 Checksum: 316
Satellite: AO-16 Catalog number: 20439 Epoch time: 14212.80159694 Element set: 79 Inclination: 098.5076 deg RA of node: 149.3012 deg Eccentricity: 0.0011310 Arg of perigee: 033.8686 deg Mean anomaly: 353.5781 deg Mean motion: 14.32371514 rev/day Decay rate: 1.25e-06 rev/day^2 Epoch rev: 28087 Checksum: 294
Satellite: LO-19 Catalog number: 20442 Epoch time: 14211.79813786 Element set: 17 Inclination: 098.4785 deg RA of node: 148.8397 deg Eccentricity: 0.0012093 Arg of perigee: 025.6051 deg Mean anomaly: 334.5729 deg Mean motion: 14.32572355 rev/day Decay rate: 9.1e-07 rev/day^2 Epoch rev: 28092 Checksum: 315
Satellite: AO-27 Catalog number: 22825 Epoch time: 14212.83374545 Element set: 727 Inclination: 098.6641 deg RA of node: 158.6823 deg Eccentricity: 0.0008959 Arg of perigee: 160.4859 deg Mean anomaly: 225.9091 deg Mean motion: 14.29732281 rev/day Decay rate: 9.0e-07 rev/day^2 Epoch rev: 8716 Checksum: 333
Satellite: IO-26 Catalog number: 22826 Epoch time: 14212.81458200 Element set: 483 Inclination: 098.6585 deg RA of node: 158.8756 deg Eccentricity: 0.0009630 Arg of perigee: 153.8322 deg Mean anomaly: 206.3348 deg Mean motion: 14.30033899 rev/day Decay rate: 9.0e-07 rev/day^2 Epoch rev: 8729 Checksum: 316
Satellite: GO-32 Catalog number: 25397 Epoch time: 14211.81179808 Element set: 405 Inclination: 098.4719 deg RA of node: 168.1805 deg Eccentricity: 0.0001867 Arg of perigee: 143.8698 deg Mean anomaly: 273.9590 deg Mean motion: 14.23452196 rev/day Decay rate: 3.4e-07 rev/day^2 Epoch rev: 83407 Checksum: 331
Satellite: NO-44 Catalog number: 26931 Epoch time: 14212.59340068 Element set: 661 Inclination: 067.0518 deg RA of node: 283.9468 deg Eccentricity: 0.0007063 Arg of perigee: 281.0216 deg Mean anomaly: 079.0090 deg Mean motion: 14.30133229 rev/day Decay rate: 2.5e-07 rev/day^2 Epoch rev: 66995 Checksum: 296
Satellite: SO-50 Catalog number: 27607 Epoch time: 14212.73334199 Element set: 462 Inclination: 064.5565 deg RA of node: 096.5479 deg Eccentricity: 0.0053101 Arg of perigee: 358.1152 deg Mean anomaly: 001.9740 deg Mean motion: 14.73839008 rev/day Decay rate: 4.88e-06 rev/day^2 Epoch rev: 62404 Checksum: 304
Satellite: CO-55 Catalog number: 27844 Epoch time: 14212.49351715 Element set: 982 Inclination: 098.6988 deg RA of node: 220.6270 deg Eccentricity: 0.0010692 Arg of perigee: 143.0598 deg Mean anomaly: 010.2163 deg Mean motion: 14.21531420 rev/day Decay rate: 1.41e-06 rev/day^2 Epoch rev: 57487 Checksum: 297
Satellite: CO-57 Catalog number: 27848 Epoch time: 14212.77028249 Element set: 923 Inclination: 098.7082 deg RA of node: 220.6350 deg Eccentricity: 0.0010512 Arg of perigee: 148.3989 deg Mean anomaly: 265.2898 deg Mean motion: 14.21215151 rev/day Decay rate: 1.76e-06 rev/day^2 Epoch rev: 57483 Checksum: 321
Satellite: AO-51 Catalog number: 28375 Epoch time: 14211.45323738 Element set: 898 Inclination: 098.2524 deg RA of node: 156.8966 deg Eccentricity: 0.0082447 Arg of perigee: 220.8360 deg Mean anomaly: 138.6633 deg Mean motion: 14.41405870 rev/day Decay rate: 7.4e-07 rev/day^2 Epoch rev: 53013 Checksum: 315
Satellite: CP3 Catalog number: 31129 Epoch time: 14212.19723949 Element set: 808 Inclination: 097.9374 deg RA of node: 187.9599 deg Eccentricity: 0.0097308 Arg of perigee: 233.2110 deg Mean anomaly: 259.2366 deg Mean motion: 14.54762946 rev/day Decay rate: 3.79e-06 rev/day^2 Epoch rev: 38643 Checksum: 348
Satellite: CO-65 Catalog number: 32785 Epoch time: 14212.21717015 Element set: 15 Inclination: 097.6962 deg RA of node: 262.0614 deg Eccentricity: 0.0014525 Arg of perigee: 050.0511 deg Mean anomaly: 350.5497 deg Mean motion: 14.85407664 rev/day Decay rate: 7.78e-06 rev/day^2 Epoch rev: 33856 Checksum: 300
Satellite: PRISM Catalog number: 33493 Epoch time: 14212.81747604 Element set: 155 Inclination: 098.2516 deg RA of node: 030.3768 deg Eccentricity: 0.0016507 Arg of perigee: 302.0298 deg Mean anomaly: 057.9325 deg Mean motion: 14.89656629 rev/day Decay rate: 1.754e-05 rev/day^2 Epoch rev: 29882 Checksum: 322
Satellite: SOHLA-1 Catalog number: 33496 Epoch time: 14211.94538829 Element set: 415 Inclination: 098.1747 deg RA of node: 332.9951 deg Eccentricity: 0.0007718 Arg of perigee: 104.8526 deg Mean anomaly: 034.4191 deg Mean motion: 14.70844978 rev/day Decay rate: 2.67e-06 rev/day^2 Epoch rev: 29594 Checksum: 338
Satellite: TISAT-1 Catalog number: 36799 Epoch time: 14212.86946451 Element set: 417 Inclination: 098.0178 deg RA of node: 305.2064 deg Eccentricity: 0.0014196 Arg of perigee: 169.3390 deg Mean anomaly: 190.8129 deg Mean motion: 14.85822201 rev/day Decay rate: 1.198e-05 rev/day^2 Epoch rev: 21935 Checksum: 316
Satellite: STUDSAT Catalog number: 36801 Epoch time: 14211.98005382 Element set: 861 Inclination: 098.0381 deg RA of node: 313.2301 deg Eccentricity: 0.0010328 Arg of perigee: 142.5801 deg Mean anomaly: 277.1453 deg Mean motion: 14.97360515 rev/day Decay rate: 9.289e-05 rev/day^2 Epoch rev: 21968 Checksum: 286
Satellite: ALMASAT-1 Catalog number: 38078 Epoch time: 14211.79835927 Element set: 96 Inclination: 069.4695 deg RA of node: 313.9093 deg Eccentricity: 0.0588019 Arg of perigee: 333.7433 deg Mean anomaly: 154.8033 deg Mean motion: 14.51993422 rev/day Decay rate: 1.6503e-04 rev/day^2 Epoch rev: 12796 Checksum: 337
Satellite: XATCOBEO Catalog number: 38082 Epoch time: 14212.86695302 Element set: 453 Inclination: 069.4303 deg RA of node: 187.9736 deg Eccentricity: 0.0147443 Arg of perigee: 262.8812 deg Mean anomaly: 179.5919 deg Mean motion: 15.75128034 rev/day Decay rate: 3.11638e-03 rev/day^2 Epoch rev: 13138 Checksum: 321
Satellite: CUBEBUG-1 Catalog number: 39153 Epoch time: 14212.77578978 Element set: 343 Inclination: 098.0418 deg RA of node: 292.9865 deg Eccentricity: 0.0017335 Arg of perigee: 203.9473 deg Mean anomaly: 156.0946 deg Mean motion: 14.77801083 rev/day Decay rate: 5.78e-06 rev/day^2 Epoch rev: 6814 Checksum: 337
Satellite: ESTCUBE-1 Catalog number: 39161 Epoch time: 14212.87401951 Element set: 338 Inclination: 098.0958 deg RA of node: 293.4407 deg Eccentricity: 0.0008376 Arg of perigee: 250.7900 deg Mean anomaly: 109.2403 deg Mean motion: 14.70068027 rev/day Decay rate: 4.50e-06 rev/day^2 Epoch rev: 6616 Checksum: 287
Satellite: DUCHIFAT-1 Catalog number: 40021 Epoch time: 14212.54418166 Element set: 119 Inclination: 097.9810 deg RA of node: 107.2783 deg Eccentricity: 0.0014637 Arg of perigee: 149.9944 deg Mean anomaly: 210.2133 deg Mean motion: 14.85403849 rev/day Decay rate: 7.65e-06 rev/day^2 Epoch rev: 616 Checksum: 286
Satellite: NANOSATCBR1 Catalog number: 40024 Epoch time: 14212.27730939 Element set: 113 Inclination: 097.9803 deg RA of node: 106.9952 deg Eccentricity: 0.0013238 Arg of perigee: 148.5494 deg Mean anomaly: 211.6535 deg Mean motion: 14.85305170 rev/day Decay rate: 7.68e-06 rev/day^2 Epoch rev: 612 Checksum: 282
Satellite: DTUSAT-2 Catalog number: 40030 Epoch time: 14212.42279606 Element set: 115 Inclination: 097.9785 deg RA of node: 107.1099 deg Eccentricity: 0.0013019 Arg of perigee: 142.3501 deg Mean anomaly: 217.8638 deg Mean motion: 14.84913745 rev/day Decay rate: 7.13e-06 rev/day^2 Epoch rev: 615 Checksum: 278
